| time (UTC) | temp C | wind direction | speed KPH | gust KPH | rain 1hr cm | rain 24hr cm | rain mn cm | humidity % | barometer mb |
| 20260506003044 | 9 | 159 | 12.9 | 27.4 | 1.30 | 9.32 | 3.91 | 92 | 1009.8 |
| 20260506001547 | 9 | 148 | 9.7 | 30.6 | 1.68 | 9.07 | 3.66 | 92 | 1010.5 |
| 20260506000047 | 9 | 266 | 6.4 | 25.7 | 2.16 | 8.76 | 3.35 | 92 | 1010.9 |
| 20260505234540 | 9 | 207 | 6.4 | 27.4 | 2.21 | 8.46 | 3.02 | 92 | 1011.2 |
| 20260505233044 | 9 | 11 | 8.0 | 20.9 | 2.11 | 7.98 | 2.57 | 92 | 1011.4 |
| 20260505231556 | 9 | 248 | 9.7 | 25.7 | 1.78 | 7.32 | 1.91 | 92 | 1011.5 |
| 20260505230041 | 9 | 10 | 17.7 | 32.2 | 1.14 | 6.58 | 1.14 | 91 | 1011.2 |
| 20260505224540 | 9 | 244 | 3.2 | 14.5 | 0.99 | 6.22 | 0.81 | 92 | 1011.6 |
| 20260505223048 | 9 | 360 | 11.3 | 30.6 | 0.89 | 5.84 | 0.43 | 91 | 1011.7 |
| 20260505221545 | 9 | 66 | 9.7 | 37.0 | 1.22 | 5.54 | 0.10 | 92 | 1011.8 |
| 20260505220057 | 9 | 194 | 9.7 | 25.7 | 1.45 | 5.41 | 0.00 | 92 | 1012.0 |
| 20260505214552 | 9 | 205 | 6.4 | 30.6 | 1.52 | 5.21 | 5.21 | 92 | 1012.1 |
| 20260505213049 | 9 | 201 | 6.4 | 16.1 | 1.47 | 4.93 | 4.93 | 92 | 1012.5 |
| 20260505211542 | 9 | 360 | 9.7 | 32.2 | 0.99 | 4.29 | 4.29 | 91 | 1012.7 |
| 20260505210046 | 10 | 142 | 8.0 | 35.4 | 0.76 | 3.94 | 3.94 | 91 | 1012.8 |
| 20260505204550 | 10 | 94 | 16.1 | 32.2 | 0.64 | 3.66 | 3.66 | 91 | 1012.7 |
| 20260505203054 | 10 | 100 | 9.7 | 24.1 | 0.46 | 3.45 | 3.45 | 91 | 1013.2 |
| 20260505201602 | 10 | 140 | 11.3 | 20.9 | 0.36 | 3.28 | 3.28 | 91 | 1013.6 |
| 20260505200052 | 10 | 113 | 4.8 | 17.7 | 0.41 | 3.15 | 3.15 | 91 | 1013.9 |
| 20260505194546 | 10 | 128 | 17.7 | 29.0 | 0.43 | 3.00 | 3.00 | 90 | 1014.1 |
| 20260505193044 | 10 | 136 | 14.5 | 27.4 | 0.58 | 2.95 | 2.95 | 91 | 1014.1 |
| 20260505191600 | 10 | 118 | 19.3 | 32.2 | 0.74 | 2.90 | 2.90 | 90 | 1014.4 |
| 20260505190050 | 10 | 129 | 20.9 | 29.0 | 0.84 | 2.72 | 2.72 | 91 | 1014.5 |
| 20260505184546 | 10 | 123 | 19.3 | 27.4 | 0.89 | 2.57 | 2.57 | 92 | 1014.5 |
| 20260505183046 | 10 | 126 | 14.5 | 20.9 | 0.84 | 2.34 | 2.34 | 92 | 1015.0 |
| 20260505181546 | 10 | 126 | 9.7 | 19.3 | 0.86 | 2.13 | 2.13 | 92 | 1015.0 |
| 20260505180051 | 10 | 114 | 9.7 | 19.3 | 0.89 | 1.88 | 1.88 | 93 | 1015.1 |
| 20260505174547 | 10 | 119 | 12.9 | 27.4 | 1.04 | 1.68 | 1.68 | 92 | 1015.2 |
| 20260505173049 | 10 | 126 | 16.1 | 29.0 | 1.17 | 1.50 | 1.50 | 92 | 1015.2 |
| 20260505171549 | 10 | 133 | 19.3 | 29.0 | 0.99 | 1.24 | 1.24 | 92 | 1015.3 |
| 20260505164553 | 11 | 119 | 11.3 | 17.7 | 0.46 | 0.61 | 0.61 | 93 | 1015.5 |
| 20260505163049 | 11 | 133 | 3.2 | 11.3 | 0.23 | 0.30 | 0.30 | 93 | 1015.2 |
| 20260505161552 | 11 | 83 | 6.4 | 22.5 | 0.18 | 0.25 | 0.25 | 93 | 1014.4 |
| 20260505153059 | 11 | 113 | 6.4 | 19.3 | 0.00 | 0.08 | 0.08 | 93 | 1014.2 |
| 20260505151559 | 11 | 110 | 6.4 | 14.5 | 0.00 | 0.08 | 0.08 | 93 | 1014.0 |
| 20260505130105 | 11 | 90 | 6.4 | 16.1 | 0.00 | 0.00 | 0.00 | 92 | 1015.3 |
| 20260505124556 | 11 | 131 | 4.8 | 14.5 | 0.00 | 0.00 | 0.00 | 91 | 1015.2 |
| 20260505123055 | 11 | 102 | 6.4 | 16.1 | 0.00 | 0.00 | 0.00 | 91 | 1015.3 |
| 20260505121608 | 11 | 132 | 6.4 | 16.1 | 0.00 | 0.00 | 0.00 | 90 | 1015.6 |
| 20260505120048 | 12 | 99 | 8.0 | 14.5 | 0.00 | 0.00 | 0.00 | 90 | 1015.7 |
| 20260505114545 | 12 | 133 | 8.0 | 14.5 | 0.00 | 0.00 | 0.00 | 91 | 1015.6 |
| 20260505113050 | 12 | 128 | 8.0 | 14.5 | 0.00 | 0.00 | 0.00 | 92 | 1015.8 |
| 20260505111549 | 12 | 136 | 4.8 | 14.5 | 0.00 | 0.00 | 0.00 | 92 | 1016.2 |
| 20260505101552 | 12 | 116 | 6.4 | 17.7 | 0.00 | 0.00 | 0.00 | 92 | 1017.1 |
| 20260505100053 | 12 | 99 | 6.4 | 14.5 | 0.00 | 0.00 | 0.00 | 91 | 1017.3 |
| 20260505094549 | 12 | 113 | 6.4 | 14.5 | 0.00 | 0.00 | 0.00 | 90 | 1017.5 |
| 20260505093051 | 12 | 41 | 3.2 | 11.3 | 0.00 | 0.00 | 0.00 | 88 | 1017.4 |
| 20260505091544 | 12 | 66 | 6.4 | 11.3 | 0.00 | 0.00 | 0.00 | 87 | 1017.7 |
| 20260505084553 | 13 | 246 | 4.8 | 14.5 | 0.00 | 0.00 | 0.00 | 84 | 1017.9 |
| 20260505083057 | 12 | 137 | 6.4 | 11.3 | 0.00 | 0.00 | 0.00 | 85 | 1018.0 |
| 20260505081551 | 12 | 167 | 3.2 | 9.7 | 0.00 | 0.00 | 0.00 | 87 | 1018.1 |
| 20260505080053 | 12 | 85 | 0.0 | 8.0 | 0.00 | 0.00 | 0.00 | 88 | 1018.3 |
| 20260505074543 | 12 | 84 | 1.6 | 6.4 | 0.00 | 0.00 | 0.00 | 89 | 1018.4 |
| 20260505073044 | 12 | 145 | 1.6 | 6.4 | 0.00 | 0.00 | 0.00 | 89 | 1018.4 |
| 20260505071539 | 12 | 81 | 3.2 | 9.7 | 0.00 | 0.00 | 0.00 | 86 | 1018.3 |
| 20260505070044 | 13 | 104 | 3.2 | 9.7 | 0.00 | 0.00 | 0.00 | 86 | 1018.1 |
| 20260505064544 | 13 | 180 | 1.6 | 8.0 | 0.00 | 0.00 | 0.00 | 87 | 1018.0 |
| 20260505063046 | 13 | 0 | 0.0 | 3.2 | 0.00 | 0.00 | 0.00 | 86 | 1017.9 |
| 20260505061546 | 13 | 134 | 1.6 | 6.4 | 0.00 | 0.00 | 0.00 | 88 | 1017.6 |
| 20260505060048 | 13 | 108 | 1.6 | 4.8 | 0.00 | 0.00 | 0.00 | 88 | 1017.6 |
| 20260505054544 | 12 | 122 | 1.6 | 4.8 | 0.00 | 0.00 | 0.00 | 86 | 1017.6 |
| 20260505053045 | 12 | 0 | 0.0 | 3.2 | 0.00 | 0.00 | 0.00 | 85 | 1017.4 |
| 20260505051543 | 12 | 159 | 1.6 | 4.8 | 0.00 | 0.00 | 0.00 | 84 | 1017.4 |
| 20260505041544 | 13 | 0 | 0.0 | 6.4 | 0.00 | 0.00 | 0.00 | 78 | 1017.0 |
| 20260505040049 | 13 | 155 | 1.6 | 8.0 | 0.00 | 0.00 | 0.00 | 78 | 1017.0 |
| 20260505034544 | 13 | 234 | 6.4 | 9.7 | 0.00 | 0.00 | 0.00 | 82 | 1016.8 |
| 20260505033102 | 13 | 229 | 4.8 | 9.7 | 0.00 | 0.00 | 0.00 | 85 | 1016.6 |
| 20260505031546 | 13 | 215 | 4.8 | 11.3 | 0.00 | 0.00 | 0.00 | 85 | 1016.5 |
| 20260505030048 | 13 | 191 | 1.6 | 4.8 | 0.00 | 0.00 | 0.00 | 85 | 1016.4 |
| 20260505024544 | 13 | 183 | 1.6 | 3.2 | 0.00 | 0.00 | 0.00 | 85 | 1016.5 |
| 20260505023056 | 13 | 188 | 1.6 | 8.0 | 0.00 | 0.00 | 0.00 | 85 | 1016.4 |
| 20260505021539 | 13 | 173 | 1.6 | 4.8 | 0.00 | 0.00 | 0.00 | 85 | 1016.3 |
| 20260505020048 | 13 | 191 | 0.0 | 8.0 | 0.00 | 0.00 | 0.00 | 84 | 1016.4 |
| 20260505014547 | 13 | 219 | 1.6 | 6.4 | 0.00 | 0.00 | 0.00 | 85 | 1016.4 |
| 20260505013047 | 13 | 131 | 3.2 | 6.4 | 0.00 | 0.00 | 0.00 | 85 | 1016.7 |
| 20260505011544 | 13 | 130 | 3.2 | 6.4 | 0.00 | 0.00 | 0.00 | 85 | 1016.7 |
| 20260505010057 | 13 | 155 | 0.0 | 3.2 | 0.00 | 0.00 | 0.00 | 84 | 1016.7 |
| 20260505004551 | 14 | 145 | 1.6 | 4.8 | 0.00 | 0.00 | 0.00 | 84 | 1016.8 |